Location: Plainartige
(45.6866°N, 1.7993°E)
Time: 01:51:06
(UTC+00:00)

RS-15 - Pass Details

Date: 01 July 2022
Orbit: 1881 x 2163 km, 64.8° (Epoch: 10 August)

Event Time Altitude Azimuth Distance (km) Brightness Sun altitude
Rises 23:06:55 0° 322° (NW) 5,698 11.6 -20.3°
Reaches altitude 10° 23:10:24 10° 323° (NW) 4,692 11.0 -20.5°
Maximum altitude 23:22:52 88° 55° (NE) 2,141 8.1 -20.8°
Enters shadow 23:31:42 22° 145° (SE) 3,650 8.9 -21.0°
